Moose Jaw Cs, Saskatchewan

12:22 AM CST on June 27, 2017 (GMT -0600)
Moose Jaw Cs

Weather History for CZMJ - August, 2013

Change the Weather History Date:

Wednesday, August 28, 2013

  Actual Average (CYMJ) Record (CYMJ)
Temperature  
Mean Temperature 76 °F -  
Max Temperature 97 °F 75 °F 95 °F (2013)
Min Temperature 54 °F 52 °F 44 °F (2008)
Cooling Degree Days 10    
Growing Degree Days 26 (Base 50)    
Moisture  
Dew Point 54 °F    
Average Humidity 55    
Maximum Humidity 83    
Minimum Humidity 16    
Precipitation  
Precipitation 0.00 in - - ()
Sea Level Pressure  
Sea Level Pressure 29.91 in    
Wind  
Wind Speed 9 mph ()    
Max Wind Speed 29 mph    
Max Gust Speed 26 mph    
Averages and records for this station are not official NWS values.
T = Trace of Precipitation, MM = Missing Value Source: Averaged Metar Reports

Daily Weather History Graph

Daily Weather History Graph

Search for Another Location

Airport or City:

Trip Planner

Search our weather history database for the weather conditions in past years. The results will help you decide how hot, cold, wet, or windy it might be!

Date:

Astronomy

Aug. 28, 2013 Rise Set
Actual Time 6:11 AM CST 7:54 PM CST
Civil Twilight 5:36 AM CST 8:28 PM CST
Nautical Twilight 4:54 AM CST 9:10 PM CST
Astronomical Twilight 4:07 AM CST 9:57 PM CST
Moon 11:47 PM CST (8/28) 2:52 PM CST (8/28)
Length of Visible Light 14h 51m
Length of Day
13h 43m
Waning Gibbous, 47% of the Moon is Illuminated
Aug 28
Waning Gibbous
Sep 5
New
Sep 12
First Quarter
Sep 19
Full
Sep 26
Last Quarter

Hourly Weather History & Observations

Time (CST) Temp. Heat Index Dew Point Humidity Pressure Visibility Wind Dir Wind Speed Gust Speed Precip Events Conditions
12:00 AM 56 °F - 49 °F 71% 29.94 in - ESE 5.8 mph - -  
12:00 AM 55.6 °F - 49.1 °F 79% 29.94 in - ESE 5.8 mph - N/A   Unknown
1:00 AM 56.3 °F - 49.3 °F 77% 29.92 in - SE 8.1 mph - N/A   Unknown
2:00 AM 54.7 °F - 49.1 °F 81% 29.92 in - SE 6.9 mph - N/A   Unknown
3:00 AM 55.4 °F - 50.2 °F 83% 29.92 in - SE 8.1 mph - N/A   Unknown
4:00 AM 58.3 °F - 53.2 °F 83% 29.91 in - SE 9.2 mph - N/A   Unknown
5:00 AM 66.0 °F - 54.9 °F 67% 29.90 in - South 6.9 mph - N/A   Unknown
6:00 AM 59 °F - 54 °F 78% 29.92 in - ESE 8.1 mph - -  
6:00 AM 59.4 °F - 54.0 °F 82% 29.92 in - ESE 8.1 mph - N/A   Unknown
7:00 AM 69.4 °F - 57.6 °F 66% 29.92 in - South 6.9 mph - N/A   Unknown
8:00 AM 70.0 °F - 58.8 °F 68% 29.93 in - East 6.9 mph - N/A   Unknown
9:00 AM 79.7 °F - 58.5 °F 48% 29.92 in - SSW 16.1 mph - N/A   Unknown
10:00 AM 84.6 °F 83.7 °F 57.2 °F 39% 29.93 in - SSW 16.1 mph 24.2 mph N/A   Unknown
11:00 AM 88.9 °F 86.9 °F 54.7 °F 31% 29.93 in - South 16.1 mph 21.9 mph N/A   Unknown
12:00 PM 92 °F - 52 °F 16% 29.91 in - SSE 29.1 mph - -  
12:00 PM 91.9 °F - 51.8 °F 25% 29.91 in - SSE 15.0 mph 21.9 mph N/A   Unknown
1:00 PM 94.8 °F - 45.9 °F 19% 29.90 in - SE 15.0 mph 21.9 mph N/A   Unknown
2:00 PM 96.3 °F - 44.4 °F 17% 29.88 in - SSE 16.1 mph 23.0 mph N/A   Unknown
3:00 PM 92.3 °F - 45.3 °F 20% 29.86 in - SSE 15.0 mph - N/A   Unknown
4:00 PM 89.1 °F - 50.5 °F 27% 29.83 in - SSE 9.2 mph - N/A   Unknown
5:00 PM 76.8 °F - 57.2 °F 51% 29.90 in - North 19.6 mph 26.5 mph N/A   Unknown
6:00 PM 77 °F - 56 °F 38% 29.88 in - NNE 12.7 mph - -  
6:00 PM 76.6 °F - 56.3 °F 49% 29.88 in - NNE 12.7 mph - N/A   Unknown
7:00 PM 75.2 °F - 57.6 °F 54% 29.88 in - West 3.5 mph - N/A   Unknown
8:00 PM 71.2 °F - 57.4 °F 61% 29.89 in - ENE 6.9 mph - N/A   Unknown
9:00 PM 69.3 °F - 57.6 °F 66% 29.93 in - East 5.8 mph - N/A   Unknown
10:00 PM 69.8 °F - 58.1 °F 66% 29.96 in - NW 10.4 mph - N/A   Unknown
11:00 PM 66.2 °F - 59.9 °F 80% 29.95 in - NE 6.9 mph - N/A   Unknown